CW9927 Weather Reports


time (UTC)temp
F
wind
direction
speed
knots
gust
knots
rain 1hr
in
rain 24hr
in
rain mn
in
humidity
%
barometer
mb
20260508031116 59 0.0 0.0 0.00 0.00 0.00 75 1017.2
20260508030116 60 0.0 0.0 0.00 0.00 0.00 74 1017.1
20260508025117 61 0.0 0.0 0.00 0.00 0.00 73 1016.9
20260508024136 62 0.0 0.0 0.00 0.00 0.00 70 1016.8
20260508023137 64 0.0 0.0 0.00 0.00 0.00 68 1016.8
20260508022116 65 0.0 0.0 0.00 0.00 0.00 68 1016.7
20260508021116 66 0.0 0.0 0.00 0.00 0.00 68 1016.6
20260508020116 67 0.0 0.0 0.00 0.00 0.00 67 1016.6
20260508015116 69 0.0 0.0 0.00 0.00 0.00 65 1016.4
20260508014116 70 0.0 0.0 0.00 0.00 0.00 63 1016.4
20260508013116 71 0.0 0.0 0.00 0.00 0.00 64 1016.4
20260508012116 71 0.0 0.0 0.00 0.00 0.00 64 1016.3
20260508011117 72 0.0 0.0 0.00 0.00 0.00 63 1016.4
20260508005118 74 0.0 0.0 0.00 0.00 0.00 60 1016.2
20260508004117 74 0.0 0.0 0.00 0.00 0.00 60 1016.2
20260508003118 75 0.0 0.0 0.00 0.00 0.00 61 1016.0
20260508002117 75 0.0 0.0 0.00 0.00 0.00 61 1016.0
20260508001118 76 0.0 0.9 0.00 0.00 0.00 60 1016.0
20260508000118 76 0.0 2.6 0.00 0.00 0.00 60 1015.9
20260507235138 77 0.0 0.0 0.00 0.00 0.00 59 1015.9
20260507234117 78 0.0 0.0 0.00 0.00 0.00 59 1015.7
20260507233118 79 0.0 0.0 0.00 0.00 0.00 59 1015.7
20260507232158 79 0.0 0.0 0.00 0.00 0.00 58 1015.8
20260507231118 80 0.0 0.0 0.00 0.00 0.00 58 1015.8
20260507230118 80 0.0 0.0 0.00 0.00 0.00 56 1015.9
20260507225118 80 0.0 0.0 0.00 0.00 0.00 56 1015.9
20260507224117 80 0.0 0.0 0.00 0.00 0.00 55 1016.0
20260507223138 81 0.0 0.0 0.00 0.00 0.00 54 1016.0
20260507222138 80 0.0 0.0 0.00 0.00 0.00 56 1016.1
20260507221117 80 0.0 0.0 0.00 0.00 0.00 56 1016.2
20260507220117 81 0.0 0.0 0.00 0.00 0.00 56 1016.3
20260507215117 81 0.0 0.0 0.00 0.00 0.00 54 1016.5
20260507214118 82 0.0 0.0 0.00 0.00 0.00 52 1016.5
20260507213117 82 0.0 0.0 0.00 0.00 0.00 53 1016.5
20260507212117 81 0.0 0.0 0.00 0.00 0.00 53 1016.7
20260507211117 81 0.0 0.0 0.00 0.00 0.00 53 1016.9
20260507210117 80 0.0 0.0 0.00 0.00 0.00 55 1016.9
20260507205118 79 0.0 0.0 0.00 0.00 0.00 55 1017.1
20260507204117 78 0.0 0.0 0.00 0.00 0.00 56 1017.1
20260507203116 78 0.0 0.0 0.00 0.00 0.00 57 1017.3
20260507202117 77 0.0 0.0 0.00 0.00 0.00 58 1017.4
20260507201117 76 0.0 0.0 0.00 0.00 0.00 61 1017.5
20260507200138 76 0.0 0.0 0.00 0.00 0.00 62 1017.6
20260507195117 75 0.0 0.0 0.00 0.00 0.00 61 1017.8
20260507194117 74 0.0 0.0 0.00 0.00 0.00 63 1017.9
20260507193118 73 0.0 0.0 0.00 0.00 0.00 63 1018.1
20260507192117 73 0.0 0.0 0.00 0.00 0.00 66 1018.2
20260507191117 72 0.0 0.0 0.00 0.00 0.00 67 1018.4
20260507185318 70 0.0 0.0 0.00 0.00 0.00 71 1018.5
20260507184317 69 0.0 0.0 0.00 0.00 0.00 70 1018.7
20260507183317 68 0.0 0.0 0.00 0.00 0.00 72 1018.9
20260507182317 67 0.0 0.0 0.00 0.00 0.00 73 1019.0
20260507181318 66 0.0 0.0 0.00 0.00 0.00 75 1019.1
20260507180317 65 0.0 0.0 0.00 0.00 0.00 79 1019.1
20260507175317 63 0.0 0.0 0.00 0.00 0.00 80 1019.2
20260507174318 62 0.0 0.0 0.00 0.00 0.00 82 1019.1
20260507173337 61 0.0 0.0 0.00 0.00 0.00 87 1019.3
20260507172315 60 0.0 0.0 0.00 0.00 0.00 87 1019.3
20260507171321 59 0.0 0.0 0.00 0.00 0.00 87 1019.4
20260507170317 59 0.0 0.0 0.00 0.00 0.00 88 1019.5
20260507165317 58 0.0 0.0 0.00 0.00 0.00 90 1019.6
20260507164318 57 0.0 0.0 0.00 0.00 0.00 91 1019.6
20260507163318 56 0.0 0.0 0.00 0.00 0.00 90 1019.6
20260507162317 56 0.0 0.0 0.00 0.00 0.00 91 1019.7
20260507161317 56 0.0 0.0 0.00 0.00 0.00 91 1019.7
20260507160317 56 0.0 0.0 0.00 0.00 0.00 91 1019.7
20260507155317 55 0.0 0.0 0.00 0.00 0.00 92 1019.8
20260507154317 55 0.0 0.0 0.00 0.00 0.00 92 1019.9
20260507153317 55 0.0 0.0 0.00 0.00 0.00 92 1019.9
20260507152338 55 0.0 0.0 0.00 0.00 0.00 92 1020.0
20260507151318 55 0.0 0.0 0.00 0.00 0.00 92 1019.9
20260507150317 54 0.0 0.0 0.00 0.00 0.00 92 1019.9
20260507145318 54 0.0 0.0 0.00 0.00 0.00 92 1020.0
20260507144318 54 0.0 0.0 0.00 0.00 0.00 92 1019.9
20260507143338 54 0.0 0.0 0.00 0.00 0.00 92 1019.9
20260507142318 54 0.0 0.0 0.00 0.00 0.00 92 1019.9
20260507141317 53 0.0 0.0 0.00 0.00 0.00 93 1019.8
20260507140317 53 0.0 0.0 0.00 0.00 0.00 92 1019.7
20260507135317 52 0.0 0.0 0.00 0.00 0.00 92 1019.6
20260507134317 51 0.0 0.0 0.00 0.00 0.00 92 1019.5
20260507133337 51 0.0 0.0 0.00 0.00 0.00 92 1019.5
20260507132317 51 0.0 0.0 0.00 0.00 0.00 91 1019.4
20260507131317 50 0.0 0.0 0.00 0.00 0.00 91 1019.4
20260507130335 50 0.0 0.0 0.00 0.00 0.00 91 1019.3
20260507130218 50 0.0 0.0 0.00 0.00 0.00 91 1019.4
20260507125116 50 0.0 0.0 0.00 0.00 0.00 91 1019.3
20260507124116 49 0.0 0.0 0.00 0.00 0.00 91 1019.3
20260507123116 49 0.0 0.0 0.00 0.00 0.00 91 1019.3
20260507122118 49 0.0 0.0 0.00 0.00 0.00 90 1019.3
20260507121116 49 0.0 0.0 0.00 0.00 0.00 90 1019.3
20260507120116 49 0.0 0.0 0.00 0.00 0.00 90 1019.4
20260507114117 49 0.0 0.0 0.00 0.00 0.00 89 1019.4
20260507113116 49 0.0 0.0 0.00 0.00 0.00 89 1019.3
20260507112138 49 0.0 0.0 0.00 0.00 0.00 89 1019.3
20260507111116 50 0.0 0.0 0.00 0.00 0.00 89 1019.3
20260507110143 50 0.0 0.0 0.00 0.00 0.00 89 1019.3
20260507105120 50 0.0 0.0 0.00 0.00 0.00 89 1019.4
20260507104117 50 0.0 0.0 0.00 0.00 0.00 89 1019.4
20260507103140 50 0.0 0.0 0.00 0.00 0.00 89 1019.4
20260507102116 50 0.0 0.0 0.00 0.00 0.00 89 1019.5
20260507101116 50 0.0 0.0 0.00 0.00 0.00 88 1019.4
20260507100116 51 0.0 0.0 0.00 0.00 0.00 88 1019.4
20260507095116 51 0.0 0.0 0.00 0.00 0.00 88 1019.4
20260507094116 51 0.0 0.0 0.00 0.00 0.00 88 1019.4
20260507093116 51 0.0 0.0 0.00 0.00 0.00 88 1019.5
20260507092116 51 0.0 0.0 0.00 0.00 0.00 87 1019.5
20260507091116 51 0.0 0.0 0.00 0.00 0.00 88 1019.5
20260507090116 52 0.0 0.0 0.00 0.00 0.00 87 1019.6
20260507085116 52 0.0 0.0 0.00 0.00 0.00 87 1019.6
20260507084116 52 0.0 0.0 0.00 0.00 0.00 87 1019.7
20260507083116 52 0.0 0.0 0.00 0.00 0.00 86 1019.7
20260507082116 52 0.0 0.0 0.00 0.00 0.00 86 1019.8
20260507081116 52 0.0 0.0 0.00 0.00 0.00 86 1019.8
20260507080116 53 0.0 0.0 0.00 0.00 0.00 86 1019.8
20260507075116 53 0.0 0.0 0.00 0.00 0.00 86 1019.9
20260507074116 54 0.0 0.0 0.00 0.00 0.00 86 1019.8
20260507073116 54 0.0 0.0 0.00 0.00 0.00 86 1019.8
20260507072116 54 0.0 0.0 0.00 0.00 0.00 86 1019.9
20260507071116 54 0.0 0.0 0.00 0.00 0.00 86 1019.8
20260507065316 54 0.0 0.0 0.00 0.00 0.00 85 1019.8
20260507064316 55 0.0 0.0 0.00 0.00 0.00 85 1019.9
20260507063315 55 0.0 0.0 0.00 0.00 0.00 85 1019.9
20260507062316 55 0.0 0.0 0.00 0.00 0.00 85 1019.9
20260507061316 55 0.0 0.0 0.00 0.00 0.00 84 1019.9
20260507060316 56 0.0 0.0 0.00 0.00 0.00 84 1019.9
20260507055316 56 0.0 0.0 0.00 0.00 0.00 84 1019.8
20260507054316 56 0.0 0.0 0.00 0.00 0.00 83 1019.8
20260507053316 57 0.0 0.0 0.00 0.00 0.00 83 1019.8
20260507052315 57 0.0 0.0 0.00 0.00 0.00 82 1019.7
20260507051339 57 0.0 0.0 0.00 0.00 0.00 81 1019.7
20260507050317 58 0.0 0.0 0.00 0.00 0.00 81 1019.7
20260507045315 58 0.0 0.0 0.00 0.00 0.00 79 1019.7
20260507044315 59 0.0 0.0 0.00 0.00 0.00 79 1019.6
20260507043316 60 0.0 0.0 0.00 0.00 0.00 77 1019.5
20260507042315 60 0.0 0.0 0.00 0.00 0.00 76 1019.3
20260507041316 61 0.0 0.0 0.00 0.00 0.00 74 1019.3
20260507040316 62 0.0 0.0 0.00 0.00 0.00 72 1019.2
20260507035336 62 0.0 0.0 0.00 0.00 0.00 70 1019.1
20260507034316 63 0.0 0.0 0.00 0.00 0.00 69 1019.1
20260507033339 64 0.0 0.0 0.00 0.00 0.00 69 1019.0
20260507032317 64 0.0 0.0 0.00 0.00 0.00 68 1018.8
20260507031316 65 0.0 0.0 0.00 0.00 0.00 68 1018.7